sat.trackr.live / text

‹ back to catalog

STARLINK-36600

NORAD 67623 · 2026-020G

PAYLOAD ACTIVE UNKNOWN

§ Identity

Operator
Country
US
Launch date
2026-01-30
Launch site
AFETR
Launch vehicle
Mass (kg)
RCS (m²)

Purposes: comms

External: N2YO · Heavens-Above · Gunter

§ Orbital elements

Epoch: 2026-09-19T21:36:16.173216Z

Period
94.27 min
Inclination
42.9985°
Eccentricity
0.0000783
Mean motion
15.27592125 rev/d
Perigee alt
482.5 km
Apogee alt
483.6 km
Semi-major
6,861.1 km
B*
3.3376e-4
RAAN
123.1567°
Arg perigee
46.1368°
Mean anomaly
313.9548°
Rev number
3,581

§ Raw data

STARLINK-366001 67623U 26020G   26262.90018719  .00008937  00000+0  33376-3 0  99982 67623  42.9985 123.1567 0000783  46.1368 313.9548 15.27592125 35813

JSON: /api/v1/satellites/67623 · /tle

For live sub-satellite position, see the globe view (requires WebGL).

§ Visibility from observer

Set your observer location to see the next 7 days of passes ≥ 10°. The values pass through the URL so the page stays shareable.

No JS? Fill the form by hand. The geolocation button needs JavaScript.